Погода в Каунасе

Поиск расширенной информации на нашем сайте:

Полезная информация:

Новости сайта



02.01.2020
Опубликован Долгосрочный прогноз погоды по городам России и ближнего зарубежья на январь 2020 года.
Карты: Прогноз на январь и февраль 2020 года, Сравнение прогнозируемой аномалии приземной температуры воздуха на январь 2020 года по разным моделям.




Погода в Каунасе - сегодня

Время (UTC), дата Ветер
(°,м/с) 
Видим.   Явления Облачность Т
(°С)
Тd
(°С)
f(%) Тe
(°С)
Pmin
(гПа)
dP
(гПа)
Po
(мм)
O2
(г/м3)
Тmin Tmax R s Состояние
почвы
03 04.08.20 120 (ЮВ) 1-3{04}  20000 м  {дождь}  10/0 средняя 
[Ac As]
+17.5 +12.5 72 +24  1008  -1  749  281           
06 04.08.20 180 (Ю) 3-4{05}  20000 м  {дождь}  10/3 1500 м средняя 
[Sc|Ac As]
+19.1 +13.2 69 +26  1008.2  0.3  749  280  +16.8    0.0    влажная 
09 04.08.20 240 (ЮЗ) 2-4{05}  20000 м    10/6 1500 м средняя 
[Sc|Ac As]
+21.3 +14.5 65 +29  1008.5  0.3  750  277           
12 04.08.20 250 (З) 2-3{04}  19000 м  слаб. дождь  10/10 1050 м 
[Ns]
+21.3 +16.6 75 +33  1009.4  0.9  750  277      0.0     
15 04.08.20 тихо () -2{04}  10 км  слаб. дождь  10/10 450 м 
[Ns]
+18.4 +16.9 91 +31  1010  0.5  751  280           
18 04.08.20 тихо () -0{03}  3900 м  слаб. дождь  10/10 150 м 
[Ns]
+17.7 +16.5 93 +29  1010.3  0.3  751  281    +24  12     
21 04.08.20 300 (СЗ) 3-5{05}  15000 м  {дождь}  10/10 180 м 
[Sc]
+17.2 +16.2 94 +29  1011.6  1.3  752  281           
00 05.08.20 320 (СЗ) 3-6{06}  18000 м  {дождь}  10/10 240 м 
[Sc]
+16.5 +15.5 94 +26  1013.5  1.8  753  283         
03 05.08.20 310 (СЗ) 2-5{06}  19000 м    4/3 150 м средняя 
[Sc|Ac trans]
+15.1 +14 93 +23  1015.5  755  285           
06 05.08.20 320 (СЗ) 3-5{06}  19000 м    6/5 300 м средняя 
[Sc|Ac lent]
+16.3 +14 86 +24  1017.6  2.1  756  285  +14.7      влажная 
09 05.08.20 320 (СЗ) 3-7{07}  20000 м    8/6 300 м средняя 
[Cu med, cong|Ac lent]
+19.7 +13.1 66 +26  1018.8  1.3  757  282           
12 05.08.20 340 (С) 3-6{10}  20000 м    3/1 1000 м верхняя 
[Cu hum|Ci fib]
+22.4 +11.1 49 +25  1019.4  0.7  758  280           
15 05.08.20 330 (СЗ) 2-4{06}  20000 м    3/3 1500 м верхняя 
[Sc|Ci fib]
+21.9 +11.6 52 +25  1019.9  0.4  758  281           
18 05.08.20 320 (СЗ) 3-5{07}  20000 м    3/0 средняя, верхняя 
[Ac lent|Ci fib]
+19 +10 56 +21  1021.4  1.4  759  284    +23.6       
21 05.08.20 310 (СЗ) 1-2{05}  20000 м    3/0 верхняя 
[Ci fib]
+14 +10.4 79 +16  1023  1.5  760  290           
00 06.08.20 тихо () -0{02}  19000 м    ясно 
+10.9 +9.5 91 +11  1024  0.9  761  293           
03 06.08.20 тихо () -0{01}  9000 м  дымка  ясно 
+9.1 +8.1 93 +9  1025.1  762  296           
06 06.08.20 тихо () -2{02}  20000 м    1/0 верхняя 
[Ci fib]
+18.1 +12 68 +22  1026.1  1.3  763  286  +8.9        влажная 
09 06.08.20 360 (С) 2-4{04}  20000 м    1/0 верхняя 
[Ci fib]
+21.8 +10.5 49 +23  1026.7  0.7  763  283           
12 06.08.20 010 (С) 2-4{05}  20000 м    1/0 верхняя 
[Ci fib]
+24.1 +9.9 41 +25  1026.5  -0.1  763  281           
15 06.08.20 020 (С) 2-4{05}  20000 м    1/0 верхняя 
[Ci fib]
+25.2 +10.5 40 +27  1025.6  -0.9  762  279           
18 06.08.20 тихо () -1{04}  20000 м    1/0 верхняя 
[Ci fib]
+22.4 +13.7 58 +29  1025.9  0.2  763  281    +25.4       
21 06.08.20 тихо () -1{02}  20000 м    ясно 
+15.7 +13.3 86 +21  1027.1  763  288           
00 07.08.20 тихо () -0{02}  19000 м    1/0 верхняя 
[Ci fib]
+14.1 +12.7 91 +19  1027.7  0.5  764  290           
03 07.08.20 тихо () -1{01}  0700 м  туман  ясно 
+13.1 +12.1 94 +17  1028  0.3  764  291           
Время (UTC), дата Ветер
(°,м/с) 
Видим.   Явления Облачность Т
(°С)
Тd
(°С)
f(%) Тe
(°С)
Pmin
(гПа)
dP
(гПа)
Po
(мм)
O2
(г/м3)
Тmin Tmax R s Состояние
почвы

Для получения пояснительной информации подведите курсор к названию столбца.

ПОГОДА в Каунасе - архив

Всё, что Вы хотите узнать о погоде в Каунасе - удобно и подробно!

Выберите нужную дату (начиная с 1 января 2019* года) и нажмите кнопку "Найти".
Будут отображены архивные сводки погоды по пункту Каунас, начиная с указанной даты.


Отображать данные в формате CSV (для использования в таблицах Excel)


Внимание! Наш архив погоды предназначен исключительно для личного некоммерческого использования в познавательных целях. Если Вам необходимы официальные справки о состоянии погоды (для производственных, юридических, коммерческих и т.п. целей), обращайтесь в органы Росгидромета.

*Примечание: данная дата относится к архиву по метеостанциям СССР (Россия, СНГ, Балтия).
Архив по метеостанциям Зарубежной Европы и Азии (кроме Китая) хранится 10 дней, по другим регионам земного шара (Китай, Африка, Америка, Австралия, Океания) - 1 день.

Каунас - район местоположения метеостанции


Название, широта, долгота, высота метеостанции:
Каунас 54.9°ш. 23.8°д. 77 м над ур. моря [Литва]

Дополнительная информация

В oтличие oт бoльшинства пoгoдных сайтoв мы публикуем пoдрoбную метеoинфoрмацию в детальнoм прoфессиoнальнoм фoрмате.

Характеристики температуры и влажнoсти вoздуха измеряются на высoте 2 м в тени вдали oт зданий и деревьев.
Скoрoсть ветра измеряется на высoте 10 м (на урoвне рoста челoвека скoрoсть ветра ниже в 1.5-2 раза). Если метеoстанция нахoдится в гoрoде или в лесу, тo скoрoсть ветра занижена на 2-4 м/с пo сравнению с oткрытым местoм. Скoрoсть ветра над акватoриями крупных рек и oзёр, а также на вершинах хoлмoв на 2-5 м/с выше, чем в oбычных услoвиях.
Атмoсфернoе давление в разных тoчках местнoсти мoжет значительнo oтличаться oт давления на метеoстанции, в зависимoсти oт услoвий рельефа (при пoдъёме на 10 м давление пoнижается примернo на 1 мм рт.ст.).